Weather History for KRWL - June, 2014

Change the Weather History Date:

Sunday, June 8, 2014

  Actual Average Record
Temperature  
Mean Temperature 44 °F 57 °F  
Max Temperature 54 °F 72 °F 87 °F (2004)
Min Temperature 33 °F 41 °F 28 °F (2007)
Degree Days  
Heating Degree Days 21 9  
Month to date heating degree days 60 78  
Since 1 June heating degree days 60 78  
Since 1 July heating degree days 7890 8281  
Cooling Degree Days 0 0  
Month to date cooling degree days 0 0  
Year to date cooling degree days 2 0  
Since 1 June cooling degree days 0 0  
Moisture  
Dew Point 40 °F    
Average Humidity 82    
Maximum Humidity 93    
Minimum Humidity 70    
Precipitation  
Precipitation 0.13 in 0.03 in 0.64 in (1974)
Month to date precipitation 0.13 0.33  
Year to date precipitation 2.64 4.25  
Sea Level Pressure  
Sea Level Pressure 30.05 in    
Wind  
Wind Speed 8 mph (North)    
Max Wind Speed 32 mph    
Max Gust Speed 39 mph    
Visibility 9 miles    
Events Rain , Thunderstorm    
T = Trace of Precipitation, MM = Missing Value Source: NWS Daily Summary

Daily Weather History Graph

Daily Weather History Graph

Search for Another Location

Airport or City:

Trip Planner

Search our weather history database for the weather conditions in past years. The results will help you decide how hot, cold, wet, or windy it might be!

Date:

Astronomy

Jun. 08, 2014 Rise Set
Actual Time 5:33 AM MDT 8:42 PM MDT
Civil Twilight 5:00 AM MDT 9:16 PM MDT
Nautical Twilight 4:16 AM MDT 9:59 PM MDT
Astronomical Twilight 3:24 AM MDT 10:51 PM MDT
Moon 3:59 PM MDT (6/8) 2:32 AM MDT (6/8)
Length of Visible Light 16h 16m
Length of Day
15h 08m
Waxing Gibbous, 77% of the Moon is Illuminated
Jun 8
Waxing Gibbous
Jun 12
Full
Jun 19
Last Quarter
Jun 27
New
Jul 5
First Quarter

Hourly Weather History & Observations

Time (MDT) Temp. Windchill Dew Point Humidity Pressure Visibility Wind Dir Wind Speed Gust Speed Precip Events Conditions
12:53 AM 48.9 °F - 46.0 °F 90% 29.80 in 10.0 mi NE 11.5 mph - N/A   Clear
1:53 AM 48.0 °F - 45.0 °F 89% 29.78 in 10.0 mi NE 13.8 mph - N/A   Clear
2:53 AM 46.9 °F - 44.1 °F 90% 29.80 in 10.0 mi North 8.1 mph - N/A   Clear
3:53 AM 44.1 °F 39.0 °F 41.0 °F 89% 29.81 in 10.0 mi NNW 9.2 mph - N/A   Clear
4:53 AM 44.1 °F 40.1 °F 43.0 °F 96% 29.81 in 10.0 mi NNW 6.9 mph - N/A   Clear
5:48 AM 44.6 °F 40.7 °F 42.8 °F 93% 30.06 in 7.0 mi NNW 6.9 mph - N/A   Mostly Cloudy
5:53 AM 44.1 °F 40.1 °F 43.0 °F 96% 29.83 in 8.0 mi NNW 6.9 mph - N/A   Mostly Cloudy
6:53 AM 48.9 °F - 44.1 °F 83% 29.85 in 10.0 mi NNW 3.5 mph - N/A   Mostly Cloudy
7:19 AM 48.9 °F - 44.1 °F 83% 30.08 in 10.0 mi Calm Calm - N/A   Scattered Clouds
7:39 AM 51.1 °F - 45.0 °F 80% 30.09 in 10.0 mi North 4.6 mph - N/A   Mostly Cloudy
7:53 AM 51.1 °F - 45.0 °F 80% 29.89 in 10.0 mi NNW 6.9 mph - N/A   Overcast
8:50 AM 51.8 °F - 44.6 °F 76% 30.10 in 10.0 mi NNW 13.8 mph - N/A   Overcast
8:53 AM 52.0 °F - 44.1 °F 74% 29.93 in 10.0 mi North 12.7 mph - N/A   Overcast
9:07 AM 51.1 °F - 43.0 °F 74% 30.11 in 10.0 mi North 12.7 mph - N/A   Overcast
9:53 AM 51.1 °F - 42.1 °F 71% 29.94 in 10.0 mi North 12.7 mph - N/A   Overcast
10:53 AM 48.9 °F - 41.0 °F 74% 29.96 in 10.0 mi NE 12.7 mph - 0.00 in Rain Light Rain
11:53 AM 53.1 °F - 42.1 °F 66% 29.95 in 10.0 mi NNE 9.2 mph - 0.00 in   Overcast
12:41 PM 43.0 °F 33.1 °F 39.9 °F 89% 30.14 in 2.0 mi North 26.5 mph 35.7 mph 0.05 in Rain , Thunderstorm Heavy Rain
12:48 PM 42.8 °F 33.3 °F 39.2 °F 87% 30.14 in 1.8 mi North 24.2 mph 34.5 mph 0.07 in Rain , Thunderstorm Rain
12:53 PM 42.1 °F 32.3 °F 39.9 °F 92% 30.02 in 2.0 mi North 24.2 mph 34.5 mph 0.09 in Rain , Thunderstorm Rain
1:01 PM 42.1 °F 32.3 °F 39.9 °F 92% 30.12 in 2.5 mi NNE 24.2 mph 31.1 mph 0.01 in Rain Rain
1:04 PM 42.1 °F 32.3 °F 39.9 °F 92% 30.12 in 3.0 mi NNE 24.2 mph 31.1 mph 0.02 in Rain Rain
1:53 PM 43.0 °F - 39.9 °F 89% 30.04 in 10.0 mi Calm Calm - 0.04 in Rain Light Rain
2:09 PM 44.1 °F 37.4 °F 39.0 °F 82% 30.16 in 10.0 mi North 13.8 mph - 0.00 in   Overcast
2:53 PM 44.1 °F 37.7 °F 39.0 °F 82% 30.06 in 10.0 mi North 12.7 mph - 0.00 in   Overcast
3:53 PM 45.0 °F 38.9 °F 39.9 °F 82% 30.09 in 10.0 mi North 12.7 mph - N/A   Overcast
4:01 PM 45.0 °F 37.9 °F 39.0 °F 80% 30.19 in 10.0 mi North 16.1 mph - N/A   Overcast
4:11 PM 44.1 °F 37.4 °F 37.9 °F 79% 30.20 in 10.0 mi North 13.8 mph - N/A   Overcast
4:42 PM 44.1 °F 37.7 °F 37.9 °F 79% 30.19 in 10.0 mi North 12.7 mph - N/A   Overcast
4:53 PM 44.1 °F 37.7 °F 37.9 °F 79% 30.10 in 10.0 mi North 12.7 mph - N/A   Overcast
5:53 PM 45.0 °F 38.9 °F 37.0 °F 74% 30.09 in 10.0 mi North 12.7 mph - N/A   Overcast
6:49 PM 44.6 °F 38.8 °F 35.6 °F 71% 30.22 in 10.0 mi NE 11.5 mph - N/A   Overcast
6:53 PM 45.0 °F 40.1 °F 37.0 °F 74% 30.10 in 10.0 mi NE 9.2 mph - N/A   Overcast
7:16 PM 45.0 °F 40.6 °F 36.0 °F 71% 30.23 in 10.0 mi NNE 8.1 mph - N/A   Overcast
7:23 PM 44.1 °F 41.5 °F 37.0 °F 76% 30.22 in 10.0 mi ENE 4.6 mph - N/A   Overcast
7:53 PM 45.0 °F 42.6 °F 36.0 °F 71% 30.11 in 10.0 mi NNE 4.6 mph - N/A   Mostly Cloudy
8:53 PM 42.1 °F - 36.0 °F 79% 30.13 in 10.0 mi Calm Calm - N/A   Clear
9:53 PM 39.0 °F - 35.1 °F 86% 30.17 in 10.0 mi Calm Calm - N/A   Clear
10:53 PM 36.0 °F 32.1 °F 33.1 °F 89% 30.19 in 10.0 mi WNW 4.6 mph - N/A   Clear
11:53 PM 35.1 °F - 33.1 °F 92% 30.19 in 10.0 mi Calm Calm - N/A   Clear